Regional Weather Roundup
Issued by NWS Charleston, SC

Current Version | Previous Version | Text Only | Print | Product List | Glossary Off
Versions: 1 2 3 4 5 6 7 8 9 10 11 12 13 14 15 16 17 18 19 20 21 22 23 24 25 26 27 28 29 30 31 32 33 34 35 36 37 38 39 40 41 42 43 44 45 46 47 48 49 50

000
ASUS42 KCHS 281911
RWRCHS

REGIONAL WEATHER ROUNDUP
NATIONAL WEATHER SERVICE CHARLESTON SC
200 PM EST WED JAN 28 2015

NOTE: "FAIR" INDICATES FEW OR NO CLOUDS BELOW 12,000 FEET WITH NO
SIGNIFICANT WEATHER AND/OR OBSTRUCTIONS TO VISIBILITY.

NOT ALL STATIONS ARE QUALITY CONTROLLED BY THE NATIONAL
WEATHER SERVICE. USE DATA WITH CAUTION...ESPECIALLY
DEWPOINT OBSERVATIONS.

SCZ027-030-031-034>040-042>050-282000-
...SOUTHEAST SOUTH CAROLINA...

CITY           SKY/WX    TMP DP  RH WIND       PRES   REMARKS
N CHARLESTON   SUNNY     46  17  31 N12G20    30.23F
WATERFRONT PRK NOT AVBL
MOUNT PLEASANT FAIR     N/A N/A N/A NW7       30.23S
PINOPOLIS      NOT AVBL
MONCKS CORNER  FAIR      45  21  39 N6        30.24F
SUMMERVILLE    FAIR      46  23  39 NW9       30.25F
BEAUFORT MCAS  SUNNY     49  21  33 N12       30.24F
BEAUFORT ARPT  FAIR      46  27  46 NW12G20   30.24S
HILTON HEAD IS SUNNY    N/A N/A N/A NW12G23   30.25F
WALTERBORO     CLEAR     48  14  25 N8        30.25F
ALLENDALE      FAIR      50  18  27 VRB7G14   30.24F

...SOUTHERN MIDLANDS AND PEE DEE...

CITY           SKY/WX    TMP DP  RH WIND       PRES   REMARKS
GEORGETOWN     NOT AVBL
KINGSTREE      NOT AVBL
ORANGEBURG     SUNNY     47  17  30 NW10      30.24F
BARNWELL       FAIR      50  19  29 NE9       30.25F
AIKEN          FAIR      46  19  34 N5        30.27F
MANNING        FAIR      46  19  34 N7        30.24F
COLUMBIA       SUNNY     49  18  29 NW7       30.24F
SUMTER         SUNNY     46  18  32 N6        30.22F
FLORENCE       SUNNY     47  16  29 N6        30.24F
MYRTLE BEACH   SUNNY     45  18  33 N16G23    30.23F
N MYRTLE BEACH SUNNY     45  16  31 N10G18    30.20F

$$

GAZ063-065-086>088-099>101-113>116-118-119-134>141-150-282000-
...SOUTHEAST GEORGIA...

CITY           SKY/WX    TMP DP  RH WIND       PRES   REMARKS
SAVANNAH ARPT  SUNNY     51  16  24 NW13G21   30.24F
HUNTER AAF     SUNNY     52  19  26 NW15      30.22S
FORT STEWART   SUNNY     52  22  31 VRB7      30.23F
STATESBORO     SUNNY     50  23  35 N7        30.25F
SYLVANIA       CLEAR     49  25  38 NE10      30.26F
CLAXTON        FAIR      52  28  40 NW7       30.25F

...CSRA...CENTRAL AND FAR SOUTHEAST GEORGIA...

CITY           SKY/WX    TMP DP  RH WIND       PRES   REMARKS
THOMSON        SUNNY     52  23  32 N3        30.29F
AUGUSTA-BUSH   SUNNY     51  11  20 N8        30.25F
AUGUSTA-DANIEL NOT AVBL
SWAINSBORO     FAIR      54   0  11 NW3       30.25F
VIDALIA        SUNNY     52  28  40 N5        30.25F
EASTMAN        FAIR      53  28  37 E6        30.28F
HAZLEHURST     FAIR      53  27  36 NE3       30.24F
ALMA           SUNNY     52  26  36 N6        30.24F
WAYCROSS       SUNNY     55  32  41 N3        30.25S
JESUP          FAIR      54  28  37 CALM      30.24F
BAXLEY         FAIR      52  28  40 NE7       30.24F
BRUNSWICK      SUNNY     54  21  28 NW5       30.24F
SAINT SIMONS   SUNNY     53  23  31 MISG      30.24F

$$

SCZ027-028-034-036>038-045-046-048>050-GAZ119-141-282000-
...LAKE AND SUPPLEMENTAL COASTAL OBSERVATIONS...

STATION/POSITION TIME  TEMP    WIND        PRES    WAVE   SWELL
                       AIR SEA DIR/SP/G            HT/PER HT/PER/DIR
                 (UTC) (F)     (DEG/KT/KT) (MB)    (FT/S) (FT/S/D)
UPR LAKE MARION  NOT AVBL
WINYAH BAY       NOT AVBL
LAKE MURRAY      1800   45      CALM  /  5 1024.0F
ACE BASIN NERRS  1745   46      20/  5     1024.0
FORT PULASKI     1800   46 52              1024.2F
SAPELO ISLAND    1800   50     360/  8     1024.0F

$$

ANZ835-935-AMZ111-154-330-350-352-354-370-450-454-472-282000-
...C-MAN AND BUOY OBSERVATIONS...

STATION/POSITION TIME  TEMP    WIND        PRES    WAVE   SWELL
                       AIR SEA DIR/SP/G            HT/PER HT/PER/DIR
                 (UTC) (F)     (DEG/KT/KT) (MB)    (FT/S) (FT/S/D)
BUOY 41004       1850   42 66   10/ 16/ 21 1022.6F   5/ 6   2/13
BUOY 41008       1850   44 54   10/ 12/ 16 1024.0R   4/ 6   2/ 70/ 7
FOLLY BEACH CMAN 1900   45     340/  6/  9 1024.1F
CAPERS NEARSHORE 1800   42      40/ 10/ 12   N/A
FRIPP NEARSHORE  1800   43      10/ 17/ 19 1023.2F


STATION/POSITION TIME  TEMP    WIND        PRES    WAVE   SWELL
                       AIR SEA DIR/SP/G            HT/PER HT/PER/DIR
                 (UTC) (F)     (DEG/KT/KT) (MB)    (FT/S) (FT/S/D)
5E ST. MARYS GA  1822      57                N/A     4/ 5   2/ 80/14
FRYING PAN BUOY  1850   41 64  350/ 16/ 19 1022.8R   5/ 5   2/110/12
BUOY 41025       1850   37 57  340/ 23/ 27 1020.1R   8/11   5/ 40/11
CAPE LOOKOUT NC  1900   41     330/ 12/ 15 1021.4F
BUOY 41002       1850   56 72  320/ 21/ 27 1016.9R  10/ 8   7/ 20/10
BUOY 41010       1820   62 75  320/ 14/ 19 1019.7F
ST AUGUSTINE FL  1900   48     360/ 18/ 20 1024.0F


$$


USA.gov is the U.S. government's official web portal to all federal, state and local government web resources and services.